HST,Max TemperatureF,Mean TemperatureF,Min TemperatureF,Max Dew PointF,MeanDew PointF,Min DewpointF,Max Humidity, Mean Humidity, Min Humidity, Max Sea Level PressureIn, Mean Sea Level PressureIn, Min Sea Level PressureIn, Max VisibilityMiles, Mean VisibilityMiles, Min VisibilityMiles, Max Wind SpeedMPH, Mean Wind SpeedMPH, Max Gust SpeedMPH,PrecipitationIn, CloudCover, Events, WindDirDegrees
2013-1-1,82,76,68,66,63,55,94,70,53,30.16,30.10,30.04,10,10,8,20,13,23,0.00,5,Rain,55
2013-1-2,71,70,68,66,66,64,94,86,78,30.11,30.06,30.01,10,10,8,17,9,,0.00,7,Rain,60
2013-1-3,71,68,66,68,66,64,100,92,83,30.11,30.06,30.02,10,9,2,26,12,39,0.00,6,Rain,55
2013-1-4,75,70,66,64,63,63,88,75,65,30.15,30.09,30.04,10,10,10,29,21,,0.00,3,,42
2013-1-5,80,73,66,63,62,61,88,69,51,30.17,30.12,30.09,10,10,10,14,8,,0.00,4,,69
2013-1-6,80,71,62,64,61,57,88,67,51,30.16,30.13,30.09,10,10,10,13,7,,0.00,0,,340
2013-1-7,78,71,64,64,63,61,88,70,57,30.12,30.08,30.02,10,10,10,8,6,,0.00,4,,21
2013-1-8,80,70,60,63,61,57,94,66,51,30.03,29.98,29.94,10,10,10,16,6,,0.00,3,,278
2013-1-9,80,73,66,66,64,63,94,73,57,30.04,29.99,29.93,15,11,10,12,4,,0.00,4,,20
2013-1-10,80,70,60,63,61,59,94,63,54,30.05,30.00,29.96,10,10,10,12,5,,0.00,2,,280
2013-1-11,78,72,66,64,62,61,83,66,54,30.01,29.96,29.91,10,10,10,129,20,,0.00,2,,37
2013-1-12,78,70,62,64,62,57,94,67,47,30.03,29.99,29.95,10,10,10,12,6,,0.00,1,,140
2013-1-13,82,72,62,64,62,61,94,66,51,30.04,30.01,29.98,10,10,10,8,6,,0.00,1,,170
2013-1-14,75,72,66,72,68,66,100,89,78,30.04,29.99,29.94,10,8,0,17,13,,0.00,7,Fog-Rain,200
2013-1-15,78,71,64,64,63,63,94,73,57,30.00,29.96,29.92,10,10,10,12,6,,0.00,2,,193
2013-1-16,78,68,59,61,57,55,88,61,44,30.00,29.96,29.90,10,10,10,14,6,,0.00,1,,345
2013-1-17,75,66,57,61,60,57,100,68,57,29.97,29.93,29.88,10,10,10,12,4,,0.00,3,,284
2013-1-18,80,71,62,63,57,55,82,58,42,30.00,29.93,29.88,10,10,10,14,9,,0.00,1,,338
2013-1-19,78,68,59,55,52,50,77,53,36,30.04,30.01,29.97,10,10,10,17,10,,0.00,2,,353
2013-1-20,75,68,62,59,55,52,72,58,50,30.09,30.07,30.04,10,10,8,30,18,38,0.00,0,,40
2013-1-21,75,70,64,61,57,54,73,61,53,30.14,30.10,30.07,10,10,10,31,22,40,0.00,2,,51
2013-1-22,78,71,64,63,60,57,77,65,57,30.18,30.14,30.09,10,10,10,17,13,23,0.00,2,,43
2013-1-23,78,70,62,63,61,59,88,66,54,30.12,30.08,30.04,10,10,10,12,6,,0.00,4,,262
2013-1-24,78,71,64,66,62,61,100,71,54,30.13,30.09,30.06,10,10,10,17,7,,0.00,5,,321
2013-1-25,80,71,62,64,63,61,94,74,54,30.16,30.07,29.99,10,10,10,13,6,,0.00,3,,28
2013-1-26,80,70,60,63,61,57,100,76,50,30.10,30.03,29.95,10,10,10,12,6,,0.00,3,Rain,106
2013-1-27,75,68,61,66,64,57,94,79,64,30.05,30.00,29.90,10,10,10,21,10,26,0.00,5,Rain,161
2013-1-28,72,68,63,67,65,58,100,93,68,30.06,30.00,29.89,10,7,0,14,8,,0.50,5,Fog-Rain,124
2013-1-29,74,68,63,68,65,61,100,90,71,30.06,30.01,29.94,10,7,0,10,5,,0.09,6,Fog-Rain,122
2013-1-30,77,68,60,66,64,60,100,84,69,30.13,30.06,30.01,10,9,0,16,6,21,0.00,5,Fog-Rain,336
2013-1-31,73,69,65,67,64,61,94,84,70,30.13,30.07,30.01,10,8,0,30,16,34,0.01,3,Fog-Rain,43